This demonstration page uses our WeatherBlox Daily Observations layout. Learn more.

Left ArrowRight Arrow

40.92945, -100.16068

Hourly Observations for January 5, 2021

Temp ( °F °C ) Dew Point ( °F °C ) Humidity (%) Winds ( mph kmh ) Pressure ( in mb ) Visibility ( mi km ) Precip ( " mm )
12:15 am 00:15 Clear 25 -4.1 22 -5.5 90 90 Calm 30.18 1022 10 16.0934 0 0
12:35 am 00:35 Clear 24 -4.2 22 -5.6 90 90 Calm 30.18 1022 10 16.0934 0 0
12:55 am 00:55 Clear 24 -4.6 21 -5.9 91 91 Calm 30.18 1022 10 16.0934 0 0
1:15 am 01:15 Clear 24 -4.7 21 -6 91 91 ENE 5 7 30.18 1022 10 16.0934 0 0
1:35 am 01:35 Clear 23 -5 21 -6.2 91 91 E 3 6 30.18 1022 10 16.0934 0 0
1:55 am 01:55 Clear 23 -5.1 20 -6.4 91 91 E 5 7 30.18 1022 10 16.0934 0 0
2:15 am 02:15 Clear 24 -4.4 22 -5.8 90 90 E 5 7 30.16 1021 10 16.0934 0 0
2:35 am 02:35 Clear 24 -4.4 21 -5.9 89 89 E 5 7 30.15 1021 10 16.0934 0 0
2:55 am 02:55 Clear 26 -3.6 23 -5.1 89 89 ESE 5 7 30.14 1021 10 16.0934 0 0
3:15 am 03:15 Clear 27 -2.9 24 -4.6 88 88 SE 7 11 30.13 1020 10 16.0934 0 0
3:35 am 03:35 Clear 28 -2 25 -4.1 86 86 SE 7 11 30.09 1019 10 16.0934 0 0
3:55 am 03:55 Clear 29 -1.5 25 -3.9 84 84 SE 7 11 30.08 1019 10 16.0934 0 0
4:15 am 04:15 Clear 30 -1 25 -4 80 80 ESE 6 9 30.07 1018 10 16.0934 0 0
4:35 am 04:35 Clear 29 -1.7 24 -4.2 83 83 SE 7 11 30.06 1018 10 16.0934 0 0
4:55 am 04:55 Clear 29 -1.5 25 -4 83 83 SE 8 13 30.03 1017 10 16.0934 0 0
5:15 am 05:15 Clear 30 -1.1 25 -4 81 81 ESE 7 11 30.03 1017 10 16.0934 0 0
5:35 am 05:35 Clear 31 -0.4 25 -3.7 79 79 SSE 8 13 30.02 1017 10 16.0934 0 0
5:55 am 05:55 Clear 31 -0.6 25 -4.1 77 77 ESE 7 11 30.02 1017 10 16.0934 0 0
6:15 am 06:15 Clear 32 0 25 -3.9 75 75 ESE 7 11 30.02 1016 10 16.0934 0 0
6:35 am 06:35 Clear 32 0 25 -3.8 76 76 SE 6 9 30.01 1016 10 16.0934 0 0
6:55 am 06:55 Clear 32 -0.1 25 -3.8 76 76 ESE 7 11 30 1016 10 16.0934 0 0
7:15 am 07:15 Clear 31 -0.8 25 -4.1 79 79 SE 5 7 30 1016 10 16.0934 0 0
7:35 am 07:35 Clear 30 -1 25 -4 80 80 SE 6 9 30.01 1016 10 16.0934 0 0
7:55 am 07:55 Clear 34 1 27 -2.7 77 77 SSE 10 17 29.98 1015 10 16.0934 0 0
8:15 am 08:15 Sunny 33 0.5 27 -2.9 78 78 SSE 10 17 29.96 1015 10 16.0934 0 0
8:35 am 08:35 Sunny 34 0.9 27 -3 75 75 SE 8 13 29.97 1015 10 16.0934 0 0
8:55 am 08:55 Sunny 31 -0.5 26 -3.6 80 80 E 7 11 29.98 1015 10 16.0934 0 0
9:15 am 09:15 Sunny 32 0 26 -3.2 79 79 ESE 8 13 29.97 1015 10 16.0934 0 0
9:35 am 09:35 Sunny 33 0.5 27 -3 78 78 SSE 9 15 29.95 1014 10 16.0934 0 0
9:55 am 09:55 Sunny 33 0.8 27 -3 76 76 SE 9 15 29.95 1014 10 16.0934 0 0
10:15 am 10:15 Sunny 34 1.2 28 -2.4 77 77 SE 10 17 29.93 1014 10 16.0934 0 0
10:35 am 10:35 Sunny 36 2.2 28 -2 74 74 SSE 10 17 29.92 1013 10 16.0934 0 0
10:55 am 10:55 Sunny 37 2.6 30 -1.3 76 76 SSE 12 19 29.91 1013 10 16.0934 0 0
11:15 am 11:15 Sunny 37 2.8 30 -1.1 76 76 S 9 15 29.91 1013 10 16.0934 0 0
11:35 am 11:35 Sunny 37 3 30 -1.1 75 75 S 15 24 29.89 1012 10 16.0934 0 0
11:55 am 11:55 Sunny 38 3.1 30 -1.2 74 74 SSE 12 19 29.87 1011 10 16.0934 0 0
12:15 pm 12:15 Sunny 37 2.8 29 -1.4 74 74 S 12 19 29.87 1011 10 16.0934 0 0
12:35 pm 12:35 Sunny 39 3.9 30 -0.9 71 71 S 10 17 29.85 1011 10 16.0934 0 0
12:55 pm 12:55 Sunny 40 4.3 31 -0.5 71 71 S 10 17 29.83 1010 10 16.0934 0 0
1:15 pm 13:15 Sunny 40 4.5 31 -0.5 70 70 S 9 15 29.82 1010 10 16.0934 0 0
1:35 pm 13:35 Sunny 40 4.6 32 -0.1 72 72 SSE 7 11 29.82 1010 10 16.0934 0 0
1:55 pm 13:55 Sunny 41 5 31 -0.3 69 69 S 8 13 29.81 1009 10 16.0934 0 0
2:15 pm 14:15 Sunny 41 5.1 32 0 70 70 S 5 7 29.81 1009 10 16.0934 0 0
2:35 pm 14:35 Sunny 42 5.8 32 0 67 67 SSE 3 6 29.8 1009 10 16.0934 0 0
2:55 pm 14:55 Sunny 43 6 32 0 66 66 SSE 3 6 29.8 1009 10 16.0934 0 0
3:15 pm 15:15 Sunny 42 5.6 32 0.2 69 69 Calm 29.81 1010 10 16.0934 0 0
3:35 pm 15:35 Sunny 41 5.2 33 0.8 74 74 E 3 6 29.81 1009 10 16.0934 0 0
3:55 pm 15:55 Mostly Cloudy 40 4.5 33 0.6 76 76 NNW 5 7 29.83 1010 10 16.0934 0 0
4:15 pm 16:15 Cloudy 39 4 34 0.9 80 80 N 6 9 29.85 1011 10 16.0934 0 0
4:55 pm 16:55 Cloudy 38 3.3 33 0.4 82 82 NNW 7 11 29.87 1012 10 16.0934 0 0
5:15 pm 17:15 Mostly Cloudy 37 2.8 32 0.1 83 83 NNW 9 15 29.88 1012 10 16.0934 0 0
5:35 pm 17:35 Partly Cloudy 36 2.3 32 0 85 85 NNW 5 7 29.89 1012 10 16.0934 0 0
5:55 pm 17:55 Partly Cloudy 36 2.2 32 0 86 86 NW 3 6 29.91 1013 10 16.0934 0 0
6:15 pm 18:15 Mostly Cloudy 36 2 32 0 87 87 NW 9 15 29.93 1013 10 16.0934 0 0
6:35 pm 18:35 Cloudy 36 2.1 32 -0.1 86 86 NNW 7 11 29.93 1013 10 16.0934 0 0
6:55 pm 18:55 Cloudy 37 2.7 32 -0.2 81 81 N 5 7 29.93 1014 10 16.0934 0 0
7:15 pm 19:15 Cloudy 36 2 32 0 87 87 NNE 3 6 29.95 1014 10 16.0934 0 0
7:35 pm 19:35 Cloudy 36 2.1 32 -0.2 85 85 NNE 6 9 29.96 1014 10 16.0934 0 0
7:55 pm 19:55 Cloudy 36 2.4 32 -0.2 83 83 NE 5 7 29.96 1015 10 16.0934 0 0
8:15 pm 20:15 Cloudy 37 2.7 31 -0.3 81 81 N 6 9 29.97 1015 10 16.0934 0 0
8:35 pm 20:35 Cloudy 38 3.2 31 -0.3 78 78 NNE 6 9 29.97 1015 10 16.0934 0 0
8:55 pm 20:55 Cloudy 37 2.8 31 -0.3 80 80 NE 6 9 29.97 1015 10 16.0934 0 0
9:15 pm 21:15 Mostly Cloudy 36 2.2 32 -0.2 84 84 Calm 30 1016 10 16.0934 0 0
9:35 pm 21:35 Partly Cloudy 38 3.1 30 -1 75 75 N 6 9 30 1016 10 16.0934 0 0
9:55 pm 21:55 Mostly Cloudy 38 3.3 30 -1.2 73 73 N 6 9 30 1016 10 16.0934 0 0
10:15 pm 22:15 Cloudy 37 3 30 -1.1 75 75 N 7 11 30.02 1017 10 16.0934 0 0
10:35 pm 22:35 Cloudy 38 3.2 30 -1.1 74 74 N 8 13 30.03 1017 10 16.0934 0 0
10:55 pm 22:55 Cloudy 38 3.5 30 -1 73 73 NNW 10 17 30.02 1017 10 16.0934 0 0
11:15 pm 23:15 Cloudy 38 3.3 31 -0.7 75 75 N 12 19 30.03 1017 10 16.0934 0 0
11:35 pm 23:35 Cloudy 38 3.1 31 -0.5 77 77 N 10 17 30.04 1017 10 16.0934 0 0
11:55 pm 23:55 Cloudy 38 3.1 31 -0.5 77 77 N 10 17 30.04 1017 10 16.0934 0 0

Powered by AerisWeather